Galliano, LA

6:57 AM CDT on October 22, 2017 (GMT -0500)
Galliano

Weather History for KGAO - December, 2013

Change the Weather History Date:

Tuesday, December 3, 2013

  Actual Average (KHUM) Record (KHUM)
Temperature  
Mean Temperature 71 °F -  
Max Temperature 78 °F 69 °F 81 °F (1955)
Min Temperature 64 °F 47 °F 28 °F (1935)
Cooling Degree Days 6    
Growing Degree Days 21 (Base 50)    
Moisture  
Dew Point 67 °F    
Average Humidity 89    
Maximum Humidity 100    
Minimum Humidity 72    
Precipitation  
Precipitation 0.00 in - - ()
Sea Level Pressure  
Sea Level Pressure 29.81 in    
Wind  
Wind Speed 11 mph (South)    
Max Wind Speed 18 mph    
Max Gust Speed 26 mph    
Visibility 10 miles    
Events      
Averages and records for this station are not official NWS values.
T = Trace of Precipitation, MM = Missing Value Source: NWS Daily Summary

Daily Weather History Graph

Daily Weather History Graph

Search for Another Location

Airport or City:

Trip Planner

Search our weather history database for the weather conditions in past years. The results will help you decide how hot, cold, wet, or windy it might be!

Date:

Astronomy

Dec. 03, 2013 Rise Set
Actual Time 6:39 AM CST 5:02 PM CST
Civil Twilight 6:13 AM CST 5:27 PM CST
Nautical Twilight 5:44 AM CST 5:57 PM CST
Astronomical Twilight 5:15 AM CST 6:26 PM CST
Moon 7:10 AM CST (12/3) 6:03 PM CST (12/3)
Length of Visible Light 11h 14m
Length of Day
10h 22m
New Moon, 1% of the Moon is Illuminated
Dec 3
New Moon
Dec 9
First Quarter
Dec 17
Full
Dec 25
Last Quarter
Jan 1
New

Hourly Weather History & Observations

Time (CST) Temp. Dew Point Humidity Pressure Visibility Wind Dir Wind Speed Gust Speed Precip Events Conditions
12:15 AM 68.4 °F 65.7 °F 91% 29.81 in 10.0 mi SW 8.1 mph - N/A   Mostly Cloudy
12:35 AM 68.2 °F 65.5 °F 91% 29.81 in 10.0 mi SSW 10.4 mph - N/A   Mostly Cloudy
12:55 AM 68.0 °F 65.5 °F 92% 29.80 in 10.0 mi SW 8.1 mph - N/A   Mostly Cloudy
1:15 AM 67.6 °F 65.3 °F 92% 29.80 in 10.0 mi SSW 10.4 mph - N/A   Scattered Clouds
1:35 AM 68.0 °F 65.7 °F 92% 29.80 in 10.0 mi SSW 9.2 mph - N/A   Mostly Cloudy
1:55 AM 68.0 °F 65.5 °F 92% 29.80 in 10.0 mi SW 8.1 mph - N/A   Overcast
2:15 AM 68.0 °F 65.3 °F 91% 29.80 in 10.0 mi SSW 9.2 mph - N/A   Mostly Cloudy
2:35 AM 68.0 °F 65.5 °F 92% 29.80 in 10.0 mi SW 11.5 mph - N/A   Scattered Clouds
2:55 AM 68.2 °F 65.5 °F 91% 29.80 in 10.0 mi SSW 9.2 mph - N/A   Scattered Clouds
3:15 AM 67.3 °F 64.9 °F 92% 29.80 in 10.0 mi SSW 10.4 mph - N/A   Scattered Clouds
3:35 AM 67.1 °F 64.9 °F 93% 29.80 in 10.0 mi SSW 6.9 mph - N/A   Clear
3:55 AM 67.3 °F 65.1 °F 93% 29.79 in 10.0 mi SSW 6.9 mph - N/A   Clear
4:15 AM 67.3 °F 65.3 °F 93% 29.79 in 10.0 mi SSW 8.1 mph - N/A   Scattered Clouds
4:35 AM 67.6 °F 65.3 °F 92% 29.79 in 10.0 mi SSW 8.1 mph - N/A   Mostly Cloudy
4:55 AM 67.6 °F 65.3 °F 92% 29.78 in 10.0 mi SSW 8.1 mph - N/A   Mostly Cloudy
5:15 AM 67.5 °F 65.3 °F 93% 29.78 in 10.0 mi SSW 9.2 mph - N/A   Scattered Clouds
5:35 AM 67.6 °F 65.5 °F 93% 29.78 in 10.0 mi SSW 9.2 mph - N/A   Scattered Clouds
5:55 AM 67.5 °F 65.5 °F 93% 29.78 in 10.0 mi SSW 10.4 mph 16.1 mph N/A   Clear
6:15 AM 67.5 °F 65.7 °F 94% 29.79 in 10.0 mi SSW 10.4 mph - N/A   Clear
6:35 AM 67.5 °F 65.8 °F 95% 29.79 in 10.0 mi SSW 10.4 mph - N/A   Clear
6:55 AM 68.2 °F 66.2 °F 93% 29.79 in 10.0 mi South 10.4 mph - N/A   Clear
7:15 AM 68.7 °F 66.4 °F 92% 29.79 in 10.0 mi SSW 11.5 mph - N/A   Clear
7:35 AM 69.8 °F 67.1 °F 91% 29.80 in 10.0 mi SSW 11.5 mph - N/A   Clear
7:55 AM 70.5 °F 67.3 °F 89% 29.81 in 10.0 mi SSW 10.4 mph - N/A   Clear
8:15 AM 71.6 °F 67.5 °F 87% 29.81 in 10.0 mi SSW 12.7 mph - N/A   Clear
8:35 AM 72.9 °F 68.0 °F 85% 29.82 in 10.0 mi SSW 13.8 mph 17.3 mph N/A   Clear
8:55 AM 74.3 °F 68.0 °F 81% 29.83 in 10.0 mi South 15.0 mph 19.6 mph N/A   Clear
9:15 AM 75.0 °F 68.7 °F 81% 29.84 in 10.0 mi South 13.8 mph 18.4 mph N/A   Clear
9:35 AM 75.7 °F 68.4 °F 78% 29.85 in 10.0 mi South 15.0 mph 21.9 mph N/A   Scattered Clouds
9:55 AM 76.6 °F 68.9 °F 77% 29.84 in 10.0 mi South 16.1 mph 21.9 mph N/A   Mostly Cloudy
10:15 AM 76.5 °F 68.7 °F 77% 29.84 in 10.0 mi South 13.8 mph 21.9 mph N/A   Scattered Clouds
10:35 AM 77.4 °F 68.7 °F 75% 29.84 in 10.0 mi South 15.0 mph 26.5 mph N/A   Clear
10:55 AM 77.2 °F 68.9 °F 76% 29.83 in 10.0 mi South 18.4 mph 24.2 mph N/A   Clear
11:15 AM 77.2 °F 69.1 °F 76% 29.82 in 10.0 mi South 17.3 mph 23.0 mph N/A   Clear
11:35 AM 78.1 °F 69.4 °F 75% 29.82 in 10.0 mi South 17.3 mph 23.0 mph N/A   Clear
11:55 AM 78.1 °F 69.1 °F 74% 29.81 in 10.0 mi South 16.1 mph 23.0 mph N/A   Clear
12:15 PM 78.4 °F 68.9 °F 72% 29.80 in 10.0 mi South 16.1 mph 24.2 mph N/A   Scattered Clouds
12:35 PM 77.0 °F 68.5 °F 75% 29.80 in 10.0 mi SSW 13.8 mph 24.2 mph N/A   Mostly Cloudy
12:55 PM 76.5 °F 68.9 °F 77% 29.79 in 10.0 mi South 13.8 mph 20.7 mph N/A   Mostly Cloudy
1:15 PM 76.3 °F 68.7 °F 77% 29.78 in 10.0 mi South 17.3 mph 21.9 mph N/A   Overcast
1:35 PM 77.0 °F 68.9 °F 76% 29.77 in 10.0 mi South 17.3 mph 26.5 mph N/A   Scattered Clouds
1:55 PM 77.5 °F 69.4 °F 76% 29.77 in 10.0 mi SSW 16.1 mph 19.6 mph N/A   Clear
2:15 PM 76.6 °F 69.1 °F 77% 29.77 in 10.0 mi South 17.3 mph 24.2 mph N/A   Clear
2:35 PM 76.1 °F 69.1 °F 79% 29.77 in 10.0 mi South 16.1 mph 23.0 mph N/A   Mostly Cloudy
2:55 PM 75.7 °F 69.3 °F 80% 29.77 in 10.0 mi South 13.8 mph 21.9 mph N/A   Scattered Clouds
3:15 PM 75.4 °F 69.3 °F 81% 29.78 in 10.0 mi South 13.8 mph 19.6 mph N/A   Scattered Clouds
3:35 PM 74.5 °F 69.3 °F 84% 29.78 in 10.0 mi South 12.7 mph 18.4 mph N/A   Mostly Cloudy
3:55 PM 73.6 °F 69.1 °F 86% 29.78 in 10.0 mi South 10.4 mph - N/A   Mostly Cloudy
4:15 PM 73.6 °F 69.6 °F 87% 29.78 in 10.0 mi South 10.4 mph - N/A   Mostly Cloudy
4:35 PM 72.9 °F 69.3 °F 88% 29.79 in 10.0 mi South 11.5 mph 16.1 mph N/A   Scattered Clouds
4:55 PM 72.5 °F 69.3 °F 90% 29.78 in 10.0 mi South 11.5 mph 16.1 mph N/A   Mostly Cloudy
5:15 PM 72.1 °F 69.3 °F 91% 29.79 in 10.0 mi South 12.7 mph - N/A   Overcast
5:35 PM 71.6 °F 68.9 °F 91% 29.79 in 10.0 mi South 9.2 mph - N/A   Mostly Cloudy
5:55 PM 71.2 °F 68.9 °F 92% 29.79 in 10.0 mi South 9.2 mph - N/A   Scattered Clouds
6:15 PM 70.9 °F 69.1 °F 94% 29.80 in 10.0 mi South 8.1 mph - N/A   Scattered Clouds
6:35 PM 70.3 °F 68.9 °F 95% 29.80 in 10.0 mi South 8.1 mph - N/A   Clear
6:55 PM 70.7 °F 68.9 °F 94% 29.81 in 10.0 mi South 9.2 mph - N/A   Scattered Clouds
7:15 PM 70.3 °F 68.9 °F 95% 29.82 in 10.0 mi South 11.5 mph - N/A   Mostly Cloudy
7:35 PM 69.8 °F 68.4 °F 95% 29.82 in 10.0 mi SSE 10.4 mph - N/A   Scattered Clouds
7:55 PM 68.5 °F 67.5 °F 96% 29.83 in 10.0 mi SSE 9.2 mph - N/A   Scattered Clouds
8:15 PM 67.3 °F 66.4 °F 97% 29.83 in 10.0 mi SSE 11.5 mph - N/A   Scattered Clouds
8:35 PM 66.6 °F 65.8 °F 98% 29.84 in 10.0 mi SSE 12.7 mph - N/A   Scattered Clouds
8:55 PM 66.6 °F 66.0 °F 98% 29.84 in 10.0 mi SSE 11.5 mph 17.3 mph N/A   Mostly Cloudy
9:15 PM 66.6 °F 66.0 °F 98% 29.84 in 10.0 mi SSE 13.8 mph - N/A   Mostly Cloudy
9:35 PM 66.4 °F 65.8 °F 98% 29.84 in 10.0 mi SSE 12.7 mph - N/A   Scattered Clouds
9:55 PM 66.2 °F 65.7 °F 98% 29.84 in 10.0 mi South 12.7 mph 17.3 mph N/A   Clear
10:15 PM 65.8 °F 65.7 °F 99% 29.84 in 10.0 mi SSE 11.5 mph 18.4 mph N/A   Scattered Clouds
10:35 PM 65.5 °F 65.3 °F 99% 29.84 in 7.0 mi South 9.2 mph - N/A   Mostly Cloudy
10:55 PM 65.3 °F 65.3 °F 100% 29.85 in 7.0 mi SSE 10.4 mph - N/A   Overcast
11:15 PM 64.9 °F 64.9 °F 100% 29.84 in 7.0 mi SSE 9.2 mph - N/A   Overcast
11:35 PM 64.6 °F 64.6 °F 100% 29.84 in 7.0 mi SSE 11.5 mph - N/A   Overcast
11:55 PM 64.4 °F 64.4 °F 100% 29.84 in 7.0 mi SSE 12.7 mph - N/A   Overcast